Вернуться в каталог

STARLINK-35126

АктивенСвязьVLEO
NORAD 65503·PAYLOAD·🇺🇸 United States

Запущен Sep 5, 2025 с Cape Canaveral Space Force Station

Loading…

Ближайшие Пролёты (ближайшие 24 часа)

TLE

СвежийSource: CelesTrak SupGP

Эпоха: Sep 14, 2026, 15:08 UTC

1 65503C 25198M   26257.63104167  .00008654  00000+0  25561-3 0  2575
2 65503  53.1571 110.9866 0001315  98.5682 190.0272 15.34395487    13

Отслеживайте STARLINK-35126 в реальном времени с AllMySat

Download on the App Store